| time (UTC) | temp C | wind direction | speed KPH | gust KPH | rain 1hr cm | rain 24hr cm | rain mn cm | humidity % | barometer mb |
| 20260507000558 | 14 | 0 | 0.0 | 6.4 | 0.00 | 0.10 | 0.10 | 2 | 1006.0 |
| 20260507000101 | 14 | 276 | 0.0 | 6.4 | 0.00 | 0.10 | 0.10 | 3 | 1006.0 |
| 20260506235602 | 14 | 278 | 0.0 | 3.2 | 0.03 | 0.10 | 0.10 | 3 | 1005.9 |
| 20260506235058 | 14 | 0 | 0.0 | 1.6 | 0.03 | 0.10 | 0.10 | 3 | 1005.7 |
| 20260506234557 | 14 | 0 | 0.0 | 1.6 | 0.05 | 0.10 | 0.10 | 3 | 1005.8 |
| 20260506234058 | 14 | 0 | 0.0 | 1.6 | 0.05 | 0.10 | 0.10 | 3 | 1005.8 |
| 20260506233559 | 14 | 0 | 0.0 | 4.8 | 0.05 | 0.10 | 0.10 | 4 | 1005.8 |
| 20260506233111 | 14 | 0 | 0.0 | 6.4 | 0.05 | 0.10 | 0.10 | 4 | 1005.7 |
| 20260506232558 | 14 | 0 | 0.0 | 6.4 | 0.05 | 0.10 | 0.10 | 4 | 1005.8 |
| 20260506232058 | 14 | 0 | 0.0 | 6.4 | 0.05 | 0.10 | 0.10 | 4 | 1005.7 |
| 20260506231603 | 14 | 0 | 0.0 | 4.8 | 0.05 | 0.10 | 0.10 | 4 | 1005.8 |
| 20260506231059 | 14 | 0 | 0.0 | 3.2 | 0.05 | 0.10 | 0.10 | 5 | 1005.7 |
| 20260506230558 | 14 | 278 | 0.0 | 3.2 | 0.05 | 0.10 | 0.10 | 5 | 1005.7 |
| 20260506230100 | 14 | 0 | 0.0 | 3.2 | 0.05 | 0.10 | 0.10 | 6 | 1005.7 |
| 20260506225558 | 14 | 0 | 0.0 | 3.2 | 0.03 | 0.08 | 0.08 | 6 | 1005.8 |
| 20260506225059 | 14 | 278 | 0.0 | 4.8 | 0.03 | 0.08 | 0.08 | 6 | 1005.8 |
| 20260506224601 | 14 | 0 | 0.0 | 4.8 | 0.00 | 0.05 | 0.05 | 7 | 1005.9 |
| 20260506224057 | 14 | 0 | 0.0 | 3.2 | 0.00 | 0.05 | 0.05 | 7 | 1005.8 |
| 20260506223558 | 15 | 0 | 0.0 | 3.2 | 0.00 | 0.05 | 0.05 | 7 | 1005.9 |
| 20260506223058 | 15 | 0 | 0.0 | 3.2 | 0.00 | 0.05 | 0.05 | 7 | 1006.0 |
| 20260506222558 | 15 | 0 | 0.0 | 3.2 | 0.00 | 0.05 | 0.05 | 8 | 1006.0 |
| 20260506222058 | 15 | 0 | 0.0 | 3.2 | 0.00 | 0.05 | 0.05 | 9 | 1005.9 |
| 20260506221612 | 15 | 0 | 0.0 | 4.8 | 0.00 | 0.05 | 0.05 | 9 | 1006.0 |
| 20260506221059 | 15 | 0 | 0.0 | 6.4 | 0.00 | 0.05 | 0.05 | 9 | 1005.9 |
| 20260506220559 | 15 | 0 | 0.0 | 6.4 | 0.00 | 0.05 | 0.05 | 10 | 1006.0 |
| 20260506220059 | 15 | 0 | 0.0 | 6.4 | 0.00 | 0.05 | 0.05 | 10 | 1006.1 |
| 20260506215559 | 15 | 0 | 0.0 | 4.8 | 0.00 | 0.05 | 0.05 | 11 | 1006.2 |
| 20260506215059 | 15 | 0 | 0.0 | 4.8 | 0.00 | 0.05 | 0.05 | 11 | 1006.1 |
| 20260506214612 | 15 | 268 | 0.0 | 4.8 | 0.00 | 0.05 | 0.05 | 11 | 1006.1 |
| 20260506214059 | 15 | 0 | 0.0 | 1.6 | 0.00 | 0.05 | 0.05 | 12 | 1006.2 |
| 20260506213558 | 15 | 0 | 0.0 | 1.6 | 0.00 | 0.05 | 0.05 | 12 | 1006.1 |
| 20260506213129 | 15 | 0 | 0.0 | 9.7 | 0.00 | 0.05 | 0.05 | 13 | 1006.4 |
| 20260506212600 | 15 | 0 | 0.0 | 9.7 | 0.00 | 0.05 | 0.05 | 14 | 1006.4 |
| 20260506212058 | 15 | 115 | 0.0 | 9.7 | 0.00 | 0.05 | 0.05 | 15 | 1006.4 |
| 20260506211600 | 15 | 0 | 0.0 | 9.7 | 0.00 | 0.05 | 0.05 | 16 | 1006.4 |
| 20260506211059 | 15 | 0 | 0.0 | 9.7 | 0.00 | 0.05 | 0.05 | 16 | 1006.6 |
| 20260506210600 | 15 | 0 | 0.0 | 3.2 | 0.00 | 0.05 | 0.05 | 17 | 1006.6 |
| 20260506210104 | 15 | 40 | 0.0 | 3.2 | 0.00 | 0.05 | 0.05 | 17 | 1006.4 |
| 20260506205558 | 15 | 0 | 0.0 | 4.8 | 0.00 | 0.05 | 0.05 | 18 | 1006.6 |
| 20260506205058 | 15 | 0 | 0.0 | 4.8 | 0.00 | 0.05 | 0.05 | 19 | 1006.7 |
| 20260506204558 | 15 | 210 | 0.0 | 11.3 | 0.00 | 0.05 | 0.05 | 20 | 1006.6 |
| 20260506204058 | 15 | 163 | 0.0 | 11.3 | 0.00 | 0.05 | 0.05 | 21 | 1006.7 |
| 20260506203559 | 15 | 107 | 1.6 | 6.4 | 0.00 | 0.05 | 0.05 | 22 | 1006.8 |
| 20260506203101 | 15 | 0 | 0.0 | 6.4 | 0.00 | 0.05 | 0.05 | 23 | 1006.8 |
| 20260506202558 | 15 | 0 | 0.0 | 6.4 | 0.00 | 0.05 | 0.05 | 24 | 1006.9 |
| 20260506202059 | 15 | 0 | 1.6 | 6.4 | 0.00 | 0.05 | 0.05 | 24 | 1006.8 |
| 20260506201558 | 15 | 0 | 0.0 | 6.4 | 0.03 | 0.05 | 0.05 | 25 | 1006.8 |
| 20260506201059 | 15 | 0 | 0.0 | 6.4 | 0.05 | 0.05 | 0.05 | 25 | 1007.1 |
| 20260506200558 | 15 | 0 | 0.0 | 8.0 | 0.05 | 0.05 | 0.05 | 26 | 1007.0 |
| 20260506195559 | 15 | 298 | 0.0 | 4.8 | 0.05 | 0.05 | 0.05 | 27 | 1007.1 |
| 20260506195102 | 15 | 269 | 0.0 | 6.4 | 0.05 | 0.05 | 0.05 | 30 | 1006.9 |
| 20260506194602 | 15 | 0 | 0.0 | 6.4 | 0.05 | 0.05 | 0.05 | 31 | 1007.0 |
| 20260506194059 | 15 | 288 | 0.0 | 4.8 | 0.05 | 0.05 | 0.05 | 32 | 1007.1 |
| 20260506193600 | 15 | 152 | 0.0 | 4.8 | 0.05 | 0.05 | 0.05 | 33 | 1007.1 |
| 20260506193100 | 16 | 0 | 0.0 | 14.5 | 0.05 | 0.05 | 0.05 | 35 | 1007.1 |
| 20260506192558 | 16 | 232 | 1.6 | 14.5 | 0.05 | 0.05 | 0.05 | 40 | 1007.1 |
| 20260506192100 | 16 | 185 | 0.0 | 4.8 | 0.05 | 0.05 | 0.05 | 40 | 1007.0 |
| 20260506191600 | 16 | 0 | 0.0 | 6.4 | 0.03 | 0.03 | 0.03 | 44 | 1007.2 |
| 20260506191059 | 16 | 0 | 0.0 | 6.4 | 0.00 | 0.00 | 0.00 | 49 | 1007.2 |
| 20260506190559 | 16 | 0 | 0.0 | 4.8 | 0.00 | 0.00 | 0.00 | 49 | 1007.1 |
| 20260506190106 | 16 | 0 | 0.0 | 4.8 | 0.00 | 0.00 | 0.00 | 53 | 1007.2 |
| 20260506185558 | 16 | 0 | 0.0 | 4.8 | 0.00 | 0.00 | 0.00 | 57 | 1007.1 |
| 20260506185100 | 17 | 0 | 0.0 | 4.8 | 0.00 | 0.00 | 0.00 | 59 | 1007.1 |
| 20260506184609 | 17 | 0 | 0.0 | 4.8 | 0.00 | 0.00 | 0.00 | 61 | 1007.1 |
| 20260506184059 | 17 | 0 | 0.0 | 4.8 | 0.00 | 0.00 | 0.00 | 65 | 1007.3 |
| 20260506183559 | 17 | 279 | 0.0 | 6.4 | 0.00 | 0.00 | 0.00 | 67 | 1007.4 |
| 20260506183105 | 18 | 279 | 0.0 | 6.4 | 0.00 | 0.00 | 0.00 | 68 | 1007.4 |
| 20260506182559 | 18 | 0 | 0.0 | 6.4 | 0.00 | 0.00 | 0.00 | 68 | 1007.4 |
| 20260506182058 | 18 | 319 | 0.0 | 6.4 | 0.00 | 0.00 | 0.00 | 69 | 1007.5 |
| 20260506181624 | 18 | 285 | 0.0 | 8.0 | 0.00 | 0.00 | 0.00 | 69 | 1007.6 |
| 20260506181059 | 19 | 242 | 0.0 | 9.7 | 0.00 | 0.00 | 0.00 | 68 | 1007.6 |
| 20260506180601 | 19 | 311 | 1.6 | 9.7 | 0.00 | 0.00 | 0.00 | 68 | 1007.5 |
| 20260506175559 | 20 | 267 | 0.0 | 11.3 | 0.00 | 0.00 | 0.00 | 66 | 1007.4 |
| 20260506175058 | 20 | 0 | 3.2 | 16.1 | 0.00 | 0.00 | 0.00 | 65 | 1007.7 |
| 20260506174558 | 20 | 336 | 6.4 | 16.1 | 0.00 | 0.00 | 0.00 | 64 | 1007.7 |
| 20260506174058 | 20 | 267 | 0.0 | 11.3 | 0.00 | 0.00 | 0.00 | 63 | 1007.9 |
| 20260506173558 | 21 | 0 | 3.2 | 12.9 | 0.00 | 0.00 | 0.00 | 61 | 1007.5 |
| 20260506173113 | 21 | 257 | 1.6 | 12.9 | 0.00 | 0.00 | 0.00 | 61 | 1007.6 |
| 20260506172601 | 21 | 121 | 1.6 | 12.9 | 0.00 | 0.00 | 0.00 | 61 | 1007.7 |
| 20260506172059 | 21 | 257 | 1.6 | 12.9 | 0.00 | 0.00 | 0.00 | 59 | 1007.7 |
| 20260506171606 | 21 | 290 | 4.8 | 17.7 | 0.00 | 0.00 | 0.00 | 59 | 1007.7 |
| 20260506171101 | 21 | 302 | 3.2 | 17.7 | 0.00 | 0.00 | 0.00 | 59 | 1007.6 |
| 20260506170601 | 21 | 291 | 3.2 | 17.7 | 0.00 | 0.00 | 0.00 | 59 | 1007.5 |
| 20260506170058 | 21 | 296 | 1.6 | 16.1 | 0.00 | 0.00 | 0.00 | 59 | 1007.5 |
| 20260506165600 | 21 | 306 | 1.6 | 16.1 | 0.00 | 0.00 | 0.00 | 59 | 1007.5 |
| 20260506165059 | 21 | 262 | 1.6 | 16.1 | 0.00 | 0.00 | 0.00 | 59 | 1007.7 |
| 20260506164614 | 21 | 302 | 0.0 | 9.7 | 0.00 | 0.00 | 0.00 | 60 | 1007.7 |
| 20260506164058 | 21 | 284 | 0.0 | 9.7 | 0.00 | 0.00 | 0.00 | 61 | 1007.8 |
| 20260506163558 | 21 | 115 | 1.6 | 9.7 | 0.00 | 0.00 | 0.00 | 60 | 1007.8 |
| 20260506163105 | 21 | 296 | 0.0 | 11.3 | 0.00 | 0.00 | 0.00 | 60 | 1007.9 |
| 20260506162558 | 21 | 24 | 1.6 | 11.3 | 0.00 | 0.00 | 0.00 | 59 | 1008.2 |
| 20260506162101 | 21 | 300 | 1.6 | 11.3 | 0.00 | 0.00 | 0.00 | 60 | 1008.2 |
| 20260506161600 | 21 | 0 | 1.6 | 11.3 | 0.00 | 0.00 | 0.00 | 60 | 1008.3 |
| 20260506161100 | 21 | 28 | 0.0 | 9.7 | 0.00 | 0.00 | 0.00 | 61 | 1008.1 |
| 20260506160600 | 21 | 0 | 0.0 | 9.7 | 0.00 | 0.00 | 0.00 | 61 | 1008.3 |
| 20260506160109 | 21 | 286 | 3.2 | 9.7 | 0.00 | 0.00 | 0.00 | 61 | 1008.3 |
| 20260506155602 | 21 | 0 | 1.6 | 11.3 | 0.00 | 0.00 | 0.00 | 62 | 1008.5 |
| 20260506155059 | 20 | 0 | 1.6 | 11.3 | 0.00 | 0.00 | 0.00 | 62 | 1008.4 |
| 20260506154603 | 20 | 0 | 1.6 | 11.3 | 0.00 | 0.00 | 0.00 | 63 | 1008.6 |
| 20260506154059 | 20 | 296 | 1.6 | 9.7 | 0.00 | 0.00 | 0.00 | 63 | 1008.6 |
| 20260506153559 | 20 | 0 | 1.6 | 9.7 | 0.00 | 0.00 | 0.00 | 63 | 1008.7 |
| 20260506153113 | 20 | 0 | 1.6 | 16.1 | 0.00 | 0.00 | 0.00 | 63 | 1008.7 |
| 20260506152559 | 20 | 273 | 3.2 | 16.1 | 0.00 | 0.00 | 0.00 | 63 | 1008.9 |
| 20260506152058 | 20 | 0 | 0.0 | 8.0 | 0.00 | 0.00 | 0.00 | 64 | 1008.9 |
| 20260506151558 | 20 | 0 | 1.6 | 9.7 | 0.00 | 0.00 | 0.00 | 64 | 1008.9 |
| 20260506151102 | 20 | 292 | 3.2 | 11.3 | 0.00 | 0.00 | 0.00 | 64 | 1009.0 |
| 20260506150558 | 20 | 281 | 3.2 | 11.3 | 0.00 | 0.00 | 0.00 | 64 | 1009.1 |
| 20260506150104 | 20 | 294 | 3.2 | 9.7 | 0.00 | 0.00 | 0.00 | 65 | 1009.1 |
| 20260506145559 | 20 | 0 | 3.2 | 9.7 | 0.00 | 0.00 | 0.00 | 65 | 1009.1 |
| 20260506145100 | 20 | 0 | 1.6 | 9.7 | 0.00 | 0.00 | 0.00 | 65 | 1009.1 |
| 20260506144610 | 20 | 255 | 0.0 | 8.0 | 0.00 | 0.00 | 0.00 | 66 | 1009.0 |
| 20260506144059 | 20 | 0 | 0.0 | 11.3 | 0.00 | 0.00 | 0.00 | 66 | 1009.0 |
| 20260506143559 | 20 | 0 | 1.6 | 11.3 | 0.00 | 0.00 | 0.00 | 66 | 1009.3 |
| 20260506143058 | 19 | 0 | 1.6 | 9.7 | 0.00 | 0.00 | 0.00 | 67 | 1009.2 |
| 20260506142559 | 19 | 0 | 1.6 | 6.4 | 0.00 | 0.00 | 0.00 | 67 | 1009.1 |
| 20260506142100 | 19 | 0 | 0.0 | 11.3 | 0.00 | 0.00 | 0.00 | 68 | 1009.2 |
| 20260506141559 | 19 | 281 | 3.2 | 11.3 | 0.00 | 0.00 | 0.00 | 68 | 1009.1 |
| 20260506141059 | 19 | 298 | 1.6 | 8.0 | 0.00 | 0.00 | 0.00 | 68 | 1009.1 |
| 20260506140559 | 18 | 0 | 0.0 | 6.4 | 0.00 | 0.00 | 0.00 | 69 | 1009.0 |
| 20260506140106 | 18 | 250 | 0.0 | 6.4 | 0.00 | 0.00 | 0.00 | 69 | 1009.1 |
| 20260506135559 | 18 | 0 | 0.0 | 6.4 | 0.00 | 0.00 | 0.00 | 69 | 1009.1 |
| 20260506135059 | 18 | 0 | 1.6 | 6.4 | 0.00 | 0.00 | 0.00 | 69 | 1009.2 |
| 20260506134556 | 18 | 0 | 1.6 | 8.0 | 0.00 | 0.00 | 0.00 | 69 | 1009.2 |
| 20260506134102 | 18 | 275 | 0.0 | 11.3 | 0.00 | 0.00 | 0.00 | 69 | 1009.3 |
| 20260506133559 | 17 | 307 | 1.6 | 11.3 | 0.00 | 0.00 | 0.00 | 69 | 1009.2 |
| 20260506133058 | 17 | 286 | 0.0 | 6.4 | 0.00 | 0.00 | 0.00 | 69 | 1009.1 |
| 20260506132558 | 17 | 0 | 0.0 | 9.7 | 0.00 | 0.00 | 0.00 | 69 | 1009.3 |
| 20260506132059 | 17 | 286 | 0.0 | 9.7 | 0.00 | 0.00 | 0.00 | 69 | 1009.7 |
| 20260506131558 | 17 | 0 | 1.6 | 9.7 | 0.00 | 0.00 | 0.00 | 69 | 1009.7 |
| 20260506131059 | 17 | 0 | 1.6 | 6.4 | 0.00 | 0.00 | 0.00 | 69 | 1009.8 |
| 20260506130559 | 17 | 268 | 0.0 | 6.4 | 0.00 | 0.00 | 0.00 | 68 | 1009.8 |
| 20260506130058 | 17 | 0 | 0.0 | 6.4 | 0.00 | 0.00 | 0.00 | 68 | 1009.8 |
| 20260506125558 | 17 | 288 | 1.6 | 8.0 | 0.00 | 0.00 | 0.00 | 69 | 1009.8 |
| 20260506125058 | 17 | 0 | 0.0 | 8.0 | 0.00 | 0.00 | 0.00 | 68 | 1009.7 |
| 20260506124559 | 17 | 0 | 0.0 | 12.9 | 0.00 | 0.00 | 0.00 | 68 | 1009.5 |
| 20260506124058 | 17 | 0 | 0.0 | 12.9 | 0.00 | 0.00 | 0.00 | 67 | 1009.6 |
| 20260506123559 | 16 | 275 | 1.6 | 12.9 | 0.00 | 0.00 | 0.00 | 67 | 1009.6 |
| 20260506123102 | 16 | 269 | 1.6 | 6.4 | 0.00 | 0.00 | 0.00 | 66 | 1009.7 |
| 20260506122557 | 16 | 282 | 1.6 | 6.4 | 0.00 | 0.00 | 0.00 | 66 | 1009.6 |
| 20260506122058 | 16 | 187 | 0.0 | 6.4 | 0.00 | 0.00 | 0.00 | 65 | 1009.7 |
| 20260506121602 | 16 | 0 | 0.0 | 4.8 | 0.00 | 0.00 | 0.00 | 65 | 1009.8 |
| 20260506121101 | 16 | 275 | 0.0 | 4.8 | 0.00 | 0.00 | 0.00 | 63 | 1009.6 |
| 20260506120559 | 16 | 0 | 0.0 | 6.4 | 0.00 | 0.00 | 0.00 | 63 | 1009.7 |
| 20260506120059 | 15 | 0 | 0.0 | 6.4 | 0.00 | 0.00 | 0.00 | 61 | 1009.9 |
| 20260506115559 | 15 | 0 | 0.0 | 4.8 | 0.00 | 0.00 | 0.00 | 60 | 1009.8 |
| 20260506115059 | 15 | 256 | 0.0 | 4.8 | 0.00 | 0.00 | 0.00 | 58 | 1009.8 |
| 20260506114601 | 15 | 0 | 0.0 | 6.4 | 0.00 | 0.00 | 0.00 | 57 | 1009.8 |
| 20260506114058 | 15 | 254 | 0.0 | 6.4 | 0.00 | 0.00 | 0.00 | 57 | 1010.0 |
| 20260506113558 | 15 | 304 | 0.0 | 4.8 | 0.00 | 0.00 | 0.00 | 57 | 1010.0 |
| 20260506113100 | 15 | 0 | 0.0 | 4.8 | 0.00 | 0.00 | 0.00 | 57 | 1010.1 |
| 20260506112559 | 15 | 310 | 0.0 | 4.8 | 0.00 | 0.00 | 0.00 | 57 | 1010.0 |
| 20260506112058 | 15 | 0 | 0.0 | 4.8 | 0.00 | 0.00 | 0.00 | 56 | 1010.2 |
| 20260506111604 | 15 | 0 | 1.6 | 8.0 | 0.00 | 0.00 | 0.00 | 56 | 1010.4 |
| 20260506111058 | 15 | 288 | 0.0 | 8.0 | 0.00 | 0.00 | 0.00 | 56 | 1010.2 |
| 20260506110558 | 15 | 0 | 1.6 | 8.0 | 0.00 | 0.00 | 0.00 | 55 | 1010.1 |
| 20260506105559 | 14 | 256 | 0.0 | 6.4 | 0.00 | 0.00 | 0.00 | 54 | 1010.2 |
| 20260506105059 | 14 | 0 | 0.0 | 6.4 | 0.00 | 0.00 | 0.00 | 53 | 1010.0 |
| 20260506104607 | 14 | 0 | 0.0 | 6.4 | 0.00 | 0.00 | 0.00 | 53 | 1010.1 |
| 20260506104058 | 14 | 0 | 0.0 | 6.4 | 0.00 | 0.00 | 0.00 | 52 | 1010.0 |
| 20260506103558 | 14 | 0 | 0.0 | 4.8 | 0.00 | 0.00 | 0.00 | 53 | 1010.0 |
| 20260506103110 | 14 | 0 | 0.0 | 4.8 | 0.00 | 0.00 | 0.00 | 53 | 1009.9 |
| 20260506102559 | 14 | 0 | 0.0 | 4.8 | 0.00 | 0.00 | 0.00 | 53 | 1009.8 |
| 20260506102104 | 14 | 271 | 0.0 | 6.4 | 0.00 | 0.00 | 0.00 | 53 | 1010.0 |
| 20260506101559 | 14 | 0 | 0.0 | 6.4 | 0.00 | 0.00 | 0.00 | 54 | 1010.1 |
| 20260506101058 | 14 | 0 | 0.0 | 4.8 | 0.00 | 0.00 | 0.00 | 54 | 1010.1 |
| 20260506100558 | 14 | 0 | 0.0 | 4.8 | 0.00 | 0.00 | 0.00 | 54 | 1010.1 |
| 20260506100056 | 14 | 0 | 0.0 | 4.8 | 0.00 | 0.00 | 0.00 | 55 | 1009.9 |
| 20260506095558 | 14 | 0 | 0.0 | 4.8 | 0.00 | 0.00 | 0.00 | 55 | 1009.9 |
| 20260506095058 | 14 | 0 | 0.0 | 4.8 | 0.00 | 0.00 | 0.00 | 56 | 1009.9 |
| 20260506094558 | 14 | 0 | 0.0 | 4.8 | 0.00 | 0.00 | 0.00 | 56 | 1009.9 |
| 20260506094103 | 14 | 0 | 0.0 | 4.8 | 0.00 | 0.00 | 0.00 | 57 | 1009.9 |
| 20260506093559 | 14 | 0 | 0.0 | 6.4 | 0.00 | 0.00 | 0.00 | 57 | 1009.9 |
| 20260506093103 | 14 | 0 | 0.0 | 6.4 | 0.00 | 0.00 | 0.00 | 57 | 1009.8 |
| 20260506092559 | 14 | 0 | 0.0 | 4.8 | 0.00 | 0.00 | 0.00 | 58 | 1009.8 |
| 20260506092112 | 14 | 0 | 0.0 | 4.8 | 0.00 | 0.00 | 0.00 | 58 | 1009.9 |
| 20260506091602 | 14 | 284 | 0.0 | 3.2 | 0.00 | 0.00 | 0.00 | 58 | 1009.9 |
| 20260506091101 | 14 | 284 | 0.0 | 3.2 | 0.00 | 0.00 | 0.00 | 59 | 1009.9 |
| 20260506090602 | 14 | 0 | 0.0 | 3.2 | 0.00 | 0.00 | 0.00 | 59 | 1009.9 |
| 20260506090104 | 14 | 0 | 0.0 | 3.2 | 0.00 | 0.00 | 0.00 | 60 | 1009.8 |
| 20260506085558 | 14 | 0 | 0.0 | 3.2 | 0.00 | 0.00 | 0.00 | 60 | 1009.8 |
| 20260506085058 | 14 | 0 | 0.0 | 3.2 | 0.00 | 0.00 | 0.00 | 61 | 1009.9 |
| 20260506084607 | 14 | 0 | 0.0 | 3.2 | 0.00 | 0.00 | 0.00 | 61 | 1009.9 |
| 20260506084056 | 14 | 0 | 0.0 | 3.2 | 0.00 | 0.00 | 0.00 | 61 | 1010.0 |
| 20260506083557 | 14 | 0 | 0.0 | 4.8 | 0.00 | 0.00 | 0.00 | 61 | 1009.9 |
| 20260506083058 | 14 | 0 | 0.0 | 4.8 | 0.00 | 0.00 | 0.00 | 62 | 1009.9 |
| 20260506082557 | 14 | 0 | 0.0 | 14.5 | 0.00 | 0.00 | 0.00 | 63 | 1009.9 |
| 20260506082059 | 14 | 0 | 0.0 | 14.5 | 0.00 | 0.00 | 0.00 | 63 | 1010.0 |
| 20260506081600 | 14 | 0 | 1.6 | 14.5 | 0.00 | 0.00 | 0.00 | 63 | 1009.9 |
| 20260506081058 | 15 | 314 | 0.0 | 4.8 | 0.00 | 0.00 | 0.00 | 64 | 1009.9 |
| 20260506080559 | 15 | 0 | 0.0 | 4.8 | 0.00 | 0.00 | 0.00 | 65 | 1009.9 |
| 20260506080107 | 15 | 0 | 0.0 | 4.8 | 0.00 | 0.00 | 0.00 | 65 | 1009.8 |
| 20260506073059 | 15 | 273 | 1.6 | 9.7 | 0.00 | 0.00 | 0.00 | 67 | 1010.0 |
| 20260506072559 | 15 | 273 | 0.0 | 9.7 | 0.00 | 0.00 | 0.00 | 67 | 1010.0 |
| 20260506072059 | 15 | 283 | 0.0 | 6.4 | 0.00 | 0.00 | 0.00 | 68 | 1009.9 |
| 20260506071605 | 15 | 0 | 0.0 | 12.9 | 0.00 | 0.00 | 0.00 | 68 | 1009.8 |
| 20260506071059 | 15 | 278 | 1.6 | 12.9 | 0.00 | 0.00 | 0.00 | 68 | 1009.7 |
| 20260506070602 | 15 | 298 | 1.6 | 12.9 | 0.00 | 0.00 | 0.00 | 68 | 1009.7 |
| 20260506062058 | 16 | 284 | 1.6 | 6.4 | 0.00 | 0.00 | 0.00 | 69 | 1009.6 |
| 20260506061557 | 16 | 222 | 1.6 | 9.7 | 0.00 | 0.00 | 0.00 | 69 | 1009.5 |
| 20260506061058 | 16 | 263 | 0.0 | 9.7 | 0.00 | 0.00 | 0.00 | 69 | 1009.6 |
| 20260506060559 | 16 | 273 | 1.6 | 9.7 | 0.00 | 0.00 | 0.00 | 69 | 1009.6 |
| 20260506051059 | 16 | 0 | 1.6 | 6.4 | 0.00 | 0.00 | 0.00 | 69 | 1009.9 |
| 20260506050559 | 16 | 276 | 0.0 | 12.9 | 0.00 | 0.00 | 0.00 | 69 | 1009.8 |
| 20260506050105 | 16 | 305 | 1.6 | 12.9 | 0.00 | 0.00 | 0.00 | 68 | 1010.0 |
| 20260506045100 | 16 | 0 | 0.0 | 9.7 | 0.00 | 0.00 | 0.00 | 68 | 1010.1 |
| 20260506044600 | 16 | 0 | 0.0 | 6.4 | 0.00 | 0.00 | 0.00 | 68 | 1010.0 |
| 20260506044058 | 16 | 268 | 1.6 | 6.4 | 0.00 | 0.00 | 0.00 | 68 | 1010.1 |
| 20260506043558 | 16 | 0 | 0.0 | 6.4 | 0.00 | 0.00 | 0.00 | 68 | 1010.0 |
| 20260506043101 | 16 | 254 | 1.6 | 6.4 | 0.00 | 0.00 | 0.00 | 67 | 1010.0 |
| 20260506042558 | 16 | 290 | 0.0 | 6.4 | 0.00 | 0.00 | 0.00 | 67 | 1010.1 |
| 20260506042058 | 16 | 288 | 1.6 | 11.3 | 0.00 | 0.00 | 0.00 | 67 | 1010.1 |
| 20260506041605 | 16 | 275 | 1.6 | 11.3 | 0.00 | 0.00 | 0.00 | 67 | 1010.0 |
| 20260506041058 | 16 | 289 | 1.6 | 12.9 | 0.00 | 0.00 | 0.00 | 67 | 1009.9 |
| 20260506040558 | 16 | 286 | 1.6 | 12.9 | 0.00 | 0.00 | 0.00 | 67 | 1010.1 |
| 20260506040059 | 16 | 340 | 3.2 | 12.9 | 0.00 | 0.00 | 0.00 | 67 | 1010.0 |
| 20260506035602 | 16 | 284 | 1.6 | 12.9 | 0.00 | 0.00 | 0.00 | 67 | 1010.0 |
| 20260506035058 | 16 | 0 | 1.6 | 16.1 | 0.00 | 0.00 | 0.00 | 67 | 1010.0 |
| 20260506034614 | 16 | 261 | 1.6 | 16.1 | 0.00 | 0.00 | 0.00 | 68 | 1010.0 |
| 20260506034059 | 16 | 292 | 0.0 | 9.7 | 0.00 | 0.00 | 0.00 | 68 | 1009.9 |
| 20260506033558 | 16 | 265 | 1.6 | 9.7 | 0.00 | 0.00 | 0.00 | 68 | 1010.0 |
| 20260506033059 | 16 | 0 | 0.0 | 9.7 | 0.00 | 0.00 | 0.00 | 68 | 1010.0 |
| 20260506032559 | 16 | 0 | 0.0 | 9.7 | 0.00 | 0.00 | 0.00 | 68 | 1009.9 |
| 20260506032058 | 16 | 0 | 1.6 | 8.0 | 0.00 | 0.00 | 0.00 | 68 | 1009.9 |
| 20260506031606 | 16 | 0 | 0.0 | 9.7 | 0.00 | 0.00 | 0.00 | 68 | 1009.9 |
| 20260506031058 | 16 | 0 | 1.6 | 9.7 | 0.00 | 0.00 | 0.00 | 67 | 1009.9 |
| 20260506030558 | 16 | 0 | 1.6 | 6.4 | 0.00 | 0.00 | 0.00 | 67 | 1010.0 |
| 20260506025602 | 16 | 0 | 0.0 | 8.0 | 0.00 | 0.00 | 0.00 | 67 | 1009.9 |
| 20260506025100 | 16 | 296 | 1.6 | 8.0 | 0.00 | 0.00 | 0.00 | 67 | 1009.9 |
| 20260506024619 | 16 | 0 | 1.6 | 8.0 | 0.00 | 0.00 | 0.00 | 67 | 1009.9 |
| 20260506024058 | 16 | 0 | 0.0 | 8.0 | 0.00 | 0.00 | 0.00 | 67 | 1010.0 |
| 20260506023558 | 16 | 241 | 1.6 | 8.0 | 0.00 | 0.00 | 0.00 | 67 | 1009.9 |
| 20260506023106 | 16 | 307 | 0.0 | 4.8 | 0.00 | 0.00 | 0.00 | 67 | 1009.9 |
| 20260506022558 | 16 | 290 | 0.0 | 4.8 | 0.00 | 0.00 | 0.00 | 67 | 1010.0 |
| 20260506022058 | 16 | 290 | 0.0 | 4.8 | 0.00 | 0.00 | 0.00 | 67 | 1010.0 |
| 20260506021559 | 16 | 0 | 1.6 | 8.0 | 0.00 | 0.00 | 0.00 | 66 | 1010.1 |
| 20260506021058 | 16 | 277 | 1.6 | 8.0 | 0.00 | 0.00 | 0.00 | 66 | 1009.9 |
| 20260506020601 | 16 | 284 | 0.0 | 6.4 | 0.00 | 0.00 | 0.00 | 66 | 1010.0 |
| 20260506015559 | 16 | 276 | 0.0 | 8.0 | 0.00 | 0.00 | 0.00 | 65 | 1009.8 |
| 20260506015059 | 16 | 0 | 1.6 | 11.3 | 0.00 | 0.00 | 0.00 | 65 | 1009.9 |
| 20260506014606 | 16 | 261 | 1.6 | 11.3 | 0.00 | 0.00 | 0.00 | 65 | 1009.7 |
| 20260506014104 | 16 | 0 | 1.6 | 11.3 | 0.00 | 0.00 | 0.00 | 64 | 1009.8 |
| 20260506013602 | 17 | 0 | 1.6 | 11.3 | 0.00 | 0.00 | 0.00 | 64 | 1009.8 |
| 20260506013111 | 17 | 0 | 1.6 | 11.3 | 0.00 | 0.00 | 0.00 | 64 | 1009.6 |
| 20260506012600 | 17 | 186 | 0.0 | 4.8 | 0.00 | 0.00 | 0.00 | 64 | 1009.6 |
| 20260506012059 | 17 | 0 | 0.0 | 9.7 | 0.00 | 0.00 | 0.00 | 64 | 1009.6 |
| 20260506011611 | 17 | 290 | 0.0 | 9.7 | 0.00 | 0.00 | 0.00 | 63 | 1009.5 |
| 20260506011059 | 17 | 98 | 1.6 | 9.7 | 0.00 | 0.00 | 0.00 | 63 | 1009.5 |
| 20260506010559 | 17 | 288 | 1.6 | 11.3 | 0.00 | 0.00 | 0.00 | 63 | 1009.3 |
| 20260506010100 | 17 | 248 | 1.6 | 11.3 | 0.00 | 0.00 | 0.00 | 63 | 1009.3 |
| 20260506005559 | 17 | 0 | 0.0 | 11.3 | 0.00 | 0.00 | 0.00 | 62 | 1009.2 |
| 20260506005102 | 17 | 265 | 1.6 | 11.3 | 0.00 | 0.00 | 0.00 | 62 | 1009.2 |
| 20260506004602 | 17 | 265 | 1.6 | 8.0 | 0.00 | 0.00 | 0.00 | 62 | 1009.4 |
| 20260506004058 | 18 | 0 | 1.6 | 12.9 | 0.00 | 0.00 | 0.00 | 62 | 1009.3 |
| 20260506003559 | 18 | 288 | 1.6 | 12.9 | 0.00 | 0.00 | 0.00 | 61 | 1009.4 |
| 20260506003059 | 18 | 0 | 3.2 | 9.7 | 0.00 | 0.00 | 0.00 | 61 | 1009.2 |
| 20260506002559 | 18 | 0 | 0.0 | 9.7 | 0.00 | 0.00 | 0.00 | 60 | 1009.0 |
| 20260506002059 | 18 | 239 | 3.2 | 9.7 | 0.00 | 0.00 | 0.00 | 60 | 1008.8 |
| 20260506001600 | 18 | 0 | 1.6 | 11.3 | 0.00 | 0.00 | 0.00 | 59 | 1008.7 |
| 20260506001059 | 18 | 0 | 0.0 | 11.3 | 0.00 | 0.00 | 0.00 | 59 | 1008.8 |